Location: Temecula
(33.4977°N, 117.1073°W)
Time: 12:56:44
(UTC-07:00)

ISS - Visible Passes

Search period start: 19 October 2017 00:00
Search period end: 29 October 2017 00:00
Orbit: 401 x 408 km, 51.6° (Epoch: 20 October)

Date Brightness Start Highest point End Pass type
(mag) Time Alt. Az. Time Alt. Az. Time Alt. Az.
19 Oct -1.6 18:27:18 10° WNW 18:30:11 29° SW 18:33:04 10° SSE visible
27 Oct -2.4 06:34:19 10° SSW 06:37:23 42° SE 06:40:29 10° ENE visible
28 Oct -1.1 05:42:47 10° S 05:45:10 19° SE 05:47:33 10° E visible
